Weather History for Spirit of St Louis, MO

Change the Weather History Date:

Monday, January 28, 2013

  Actual Average Record
Temperature  
Mean Temperature 64 °F -  
Max Temperature 73 °F 39 °F 19 °F (2014)
Min Temperature 55 °F 20 °F 1 °F (2014)
Degree Days  
Heating Degree Days 1    
Growing Degree Days 14 (Base 50)    
Moisture  
Dew Point 56 °F    
Average Humidity 77    
Maximum Humidity 88    
Minimum Humidity 59    
Precipitation  
Precipitation 0.00 in - - ()
Sea Level Pressure  
Sea Level Pressure 29.91 in    
Wind  
Wind Speed 8 mph (South)    
Max Wind Speed 13 mph    
Max Gust Speed 22 mph    
Visibility 10 miles    
Events      
Averages and records for this station are not official NWS values.
T = Trace of Precipitation, MM = Missing Value Source: NWS Daily Summary

Daily Weather History Graph

Daily Weather History Graph

Search for Another Location

Airport:

Trip Planner

Search our weather history database for the weather conditions in past years. The results will help you decide how hot, cold, wet, or windy it might be!

Date:

Astronomy

Jan. 28, 2013 Rise Set
Actual Time 7:11 AM CST 5:20 PM CST
Civil Twilight 6:43 AM CST 5:48 PM CST
Nautical Twilight 6:11 AM CST 6:20 PM CST
Astronomical Twilight 5:39 AM CST 6:51 PM CST
Moon 7:13 PM CST (1/28) 7:38 AM CST (1/28)
Length of Visible Light 11h 05m
Length of Day
10h 08m
Full, 98% of the Moon is Illuminated
Jan 28
Full
Feb 3
Last Quarter
Feb 10
New
Feb 17
First Quarter
Feb 25
Full

Hourly Weather History & Observations

Time (CST) Temp. Dew Point Humidity Pressure Visibility Wind Dir Wind Speed Gust Speed Precip Events Conditions
12:40 AM 55.4 °F 51.8 °F 88% 29.94 in 10.0 mi SSW 9.2 mph - N/A   Overcast
12:54 AM 55.9 °F 52.0 °F 87% 29.95 in 10.0 mi South 10.4 mph - N/A   Overcast
1:43 AM 57.2 °F 51.8 °F 82% 29.94 in 10.0 mi SSW 8.1 mph - N/A   Overcast
1:54 AM 57.0 °F 52.0 °F 83% 29.95 in 10.0 mi SSW 8.1 mph - N/A   Overcast
2:54 AM 57.0 °F 53.1 °F 87% 29.94 in 10.0 mi South 4.6 mph - N/A   Overcast
3:54 AM 59.0 °F 54.0 °F 83% 29.93 in 10.0 mi SSW 3.5 mph - N/A   Overcast
4:54 AM 60.1 °F 54.0 °F 80% 29.92 in 10.0 mi South 9.2 mph - N/A   Overcast
5:54 AM 61.0 °F 55.0 °F 81% 29.92 in 10.0 mi SSW 11.5 mph - N/A   Overcast
6:54 AM 61.0 °F 55.0 °F 81% 29.93 in 10.0 mi SSW 9.2 mph - N/A   Overcast
7:09 AM 60.8 °F 55.4 °F 82% 29.94 in 10.0 mi SW 5.8 mph - N/A   Overcast
7:54 AM 60.1 °F 55.0 °F 83% 29.96 in 10.0 mi Calm Calm - N/A   Overcast
8:54 AM 60.1 °F 55.0 °F 83% 29.96 in 10.0 mi South 5.8 mph - 0.00 in   Overcast
9:54 AM 61.0 °F 55.9 °F 83% 29.96 in 10.0 mi South 5.8 mph - N/A   Overcast
10:44 AM 62.6 °F 57.2 °F 82% 29.96 in 10.0 mi SSE 6.9 mph - N/A   Overcast
10:54 AM 62.1 °F 55.9 °F 80% 29.96 in 10.0 mi South 9.2 mph - N/A   Mostly Cloudy
11:54 AM 64.9 °F 57.9 °F 78% 29.93 in 10.0 mi SSE 6.9 mph - N/A   Overcast
12:54 PM 70.0 °F 59.0 °F 68% 29.89 in 10.0 mi South 6.9 mph - N/A   Mostly Cloudy
1:54 PM 73.0 °F 59.0 °F 61% 29.86 in 10.0 mi SSW 11.5 mph 17.3 mph N/A   Overcast
2:54 PM 73.9 °F 59.0 °F 59% 29.86 in 10.0 mi SSW 10.4 mph 20.7 mph N/A   Mostly Cloudy
3:54 PM 73.0 °F 57.9 °F 59% 29.85 in 10.0 mi South 12.7 mph 21.9 mph N/A   Clear
4:54 PM 72.0 °F 57.0 °F 59% 29.85 in 10.0 mi South 4.6 mph - N/A   Scattered Clouds
5:54 PM 69.1 °F 57.0 °F 65% 29.85 in 10.0 mi SSE 5.8 mph - N/A   Mostly Cloudy
6:54 PM 68.0 °F 57.0 °F 68% 29.86 in 10.0 mi South 9.2 mph - N/A   Clear
7:54 PM 66.9 °F 57.9 °F 73% 29.86 in 10.0 mi South 8.1 mph - N/A   Clear
8:54 PM 64.9 °F 57.9 °F 78% 29.86 in 10.0 mi South 6.9 mph - N/A   Clear
9:54 PM 64.0 °F 57.9 °F 80% 29.86 in 10.0 mi South 9.2 mph 20.7 mph N/A   Mostly Cloudy
10:54 PM 64.0 °F 57.9 °F 80% 29.85 in 10.0 mi South 10.4 mph 18.4 mph N/A   Clear
11:54 PM 64.0 °F 57.9 °F 80% 29.83 in 10.0 mi South 6.9 mph - N/A   Clear